Terug naar catalogus

DELTA 1 DEB

ActiefSSO
NORAD 21472·DEBRIS·🇺🇸 United States

Gelanceerd Jun 12, 1975 vanaf Vandenberg Space Force Base

Loading…

Volgende Passages (komende 24 uur)

TLE

VersSource: Space-Track

Epoch: Sep 13, 2026, 14:12 UTC

1 21472U 75052FG  26256.59200953  .00000518  00000-0  62638-3 0  9991
2 21472  99.7647 123.2552 0245608 270.9877  86.3133 13.59513047743810

Volg DELTA 1 DEB in realtime met AllMySat

Download on the App Store